Location: Caltech
(34.1382°N, 118.1253°W)
Time: 03:20:42
(UTC-07:00)

Cosmos 1833 Rocket - Visible Passes

Search period start: 28 May 2017 00:00
Search period end: 07 June 2017 00:00
Orbit: 832 x 841 km, 71.0° (Epoch: 27 May)

Date Brightness Start Highest point End Pass type
(mag) Time Alt. Az. Time Alt. Az. Time Alt. Az.
28 May 4.4 20:25:56 10° ESE 20:28:06 12° E 20:30:15 10° ENE visible
28 May 2.9 22:05:43 10° SSW 22:11:17 69° WNW 22:16:55 10° NNE visible
29 May 2.8 21:49:00 10° SSW 21:54:36 76° WNW 22:00:15 10° NNE visible
30 May 2.7 21:32:18 10° SSW 21:37:54 83° WNW 21:43:34 10° NNE visible
30 May 5.7 23:21:47 10° WNW 23:22:40 10° NW 23:23:34 10° NW visible
31 May 2.7 21:15:37 10° SSW 21:21:14 89° E 21:26:53 10° NNE visible
31 May 5.6 23:04:07 10° WNW 23:05:54 11° NW 23:07:42 10° NW visible
01 Jun 2.6 20:58:57 10° SSW 21:04:32 82° ESE 21:10:11 10° NNE visible
01 Jun 5.6 22:46:47 10° WNW 22:49:08 13° NW 22:51:30 10° NNW visible
02 Jun 2.6 20:42:17 10° SSW 20:47:52 75° ESE 20:53:29 10° NNE visible
02 Jun 5.6 22:29:35 10° W 22:32:23 14° NW 22:35:11 10° NNW visible
03 Jun 2.7 20:25:38 10° S 20:31:11 68° ESE 20:36:47 10° NNE visible
03 Jun 5.6 22:12:27 10° W 22:15:37 15° NW 22:18:47 10° NNW visible
04 Jun 5.6 21:55:24 10° W 21:58:52 16° NW 22:02:21 10° NNW visible
05 Jun 6.0 05:07:47 10° NNE 05:11:08 16° NE 05:14:28 10° E visible
05 Jun 5.6 21:38:22 10° W 21:42:07 18° WNW 21:45:52 10° NNW visible
06 Jun 6.1 04:51:22 10° NNE 04:54:22 14° NE 04:57:23 10° E visible
06 Jun 5.6 21:21:23 10° WSW 21:25:22 19° WNW 21:29:22 10° NNW visible
